Change the Weather History Date:

Friday, April 26, 2013

  Actual Average Record
Temperature  
Mean Temperature 88 °F -  
Max Temperature 101 °F - - ()
Min Temperature 75 °F - - ()
Cooling Degree Days 23    
Growing Degree Days 38 (Base 50)    
Moisture  
Dew Point 58 °F    
Average Humidity 37    
Maximum Humidity 65    
Minimum Humidity 13    
Precipitation  
Precipitation 0.00 in - - ()
Sea Level Pressure  
Sea Level Pressure 29.81 in    
Wind  
Wind Speed 3 mph ()    
Max Wind Speed 10 mph    
Max Gust Speed -    
Visibility 2.7 miles    
Events      
T = Trace of Precipitation, MM = Missing Value Source: Averaged Metar Reports

Daily Weather History Graph

Daily Weather History Graph

Search for Another Location

Airport or City:

Trip Planner

Search our weather history database for the weather conditions in past years. The results will help you decide how hot, cold, wet, or windy it might be!

Date:

Astronomy

Apr. 26, 2013 Rise Set
Actual Time 5:52 AM IST 6:56 PM IST
Civil Twilight 5:28 AM IST 7:20 PM IST
Nautical Twilight 4:59 AM IST 7:49 PM IST
Astronomical Twilight 4:30 AM IST 8:19 PM IST
Moon 7:41 PM IST (4/26) 6:01 AM IST (4/26)
Length of Visible Light 13h 52m
Length of Day
13h 03m
Full, 100% of the Moon is Illuminated
Apr 26
Full
May 2
Last Quarter
May 10
New
May 18
First Quarter
May 25
Full

Hourly Weather History & Observations

Time (IST) Temp. Heat Index Dew Point Humidity Pressure Visibility Wind Dir Wind Speed Gust Speed Precip Events Conditions
12:00 AM 77.0 °F - 62.6 °F 61% 29.86 in 2.5 mi ESE 5.8 mph - N/A   Haze
3:00 AM 77.0 °F - 60.8 °F 57% 29.80 in 2.5 mi Calm Calm - N/A   Haze
4:00 AM 77.0 °F - 60.8 °F 57% 29.80 in 2.5 mi Calm Calm - N/A   Haze
4:30 AM 77.0 °F - 60.8 °F 57% 29.80 in 2.5 mi Calm Calm - N/A   Haze
5:00 AM 77.0 °F - 60.8 °F 57% 29.80 in 2.5 mi Variable 3.5 mph - N/A   Haze
5:30 AM 76 °F - 62 °F 54% 29.76 in 2 mi Calm Calm - -   Haze
5:30 AM 77.0 °F - 62.6 °F 61% 29.80 in 2.5 mi Variable 1.2 mph - N/A   Haze
6:00 AM 75.2 °F - 62.6 °F 65% 29.83 in 2.5 mi Calm Calm - N/A   Haze
7:00 AM 77.0 °F - 64.4 °F 65% 29.86 in 2.5 mi Calm Calm - N/A   Haze
8:00 AM 82.4 °F 82.9 °F 60.8 °F 48% 29.86 in 2.5 mi Variable 1.2 mph - N/A   Haze
8:30 AM 85 °F - 61 °F 34% 29.79 in 2 mi SW 4.6 mph - -   Haze
9:00 AM 86.0 °F 86.1 °F 60.8 °F 43% 29.89 in 2.5 mi WSW 6.9 mph - N/A   Haze
10:00 AM 89.6 °F 88.9 °F 59.0 °F 36% 29.89 in 2.5 mi WSW 8.1 mph - N/A   Haze
11:00 AM 93.2 °F 92.6 °F 59.0 °F 32% 29.89 in 3.7 mi Variable 6.9 mph - N/A   Partly Cloudy
11:30 AM 95 °F - 57 °F 19% 29.77 in 2 mi SW 4.6 mph - -   Haze
12:00 PM 96.8 °F 95.8 °F 57.2 °F 27% 29.89 in 3.7 mi NNW 6.9 mph - N/A   Partly Cloudy
1:00 PM 96.8 °F 95.1 °F 55.4 °F 25% 29.86 in 3.7 mi Variable 8.1 mph - N/A   Partly Cloudy
2:00 PM 100.4 °F 98.4 °F 53.6 °F 21% 29.83 in 3.7 mi Variable 4.6 mph - N/A   Scattered Clouds
2:30 PM 99 °F - 53 °F 13% 29.71 in 2 mi 3.5 mph - -   Partly Cloudy
3:00 PM 100.4 °F - 51.8 °F 20% 29.80 in 3.7 mi Variable 3.5 mph - N/A   Scattered Clouds
4:00 PM 98.6 °F - 51.8 °F 21% 29.77 in 3.7 mi Variable 5.8 mph - N/A   Scattered Clouds
5:00 PM 98.6 °F - 51.8 °F 21% 29.77 in 3.7 mi NW 5.8 mph - N/A   Partly Cloudy
5:30 PM 99 °F - 55 °F 15% 29.66 in 2 mi 2.3 mph - -   Partly Cloudy
7:00 PM 96.8 °F 94.4 °F 53.6 °F 23% 29.77 in 2.5 mi Variable 6.9 mph - N/A   Haze
8:00 PM 93.2 °F 91.3 °F 55.4 °F 28% 29.80 in 2.5 mi NNE 5.8 mph - N/A   Haze
8:30 PM 93 °F - 56 °F 19% 29.71 in 2 mi NE 6.9 mph - -   Haze
9:00 PM 93.2 °F 91.9 °F 57.2 °F 30% 29.83 in 2.5 mi Variable 9.2 mph - N/A   Haze
10:00 PM 89.6 °F 88.1 °F 57.2 °F 33% 29.86 in 2.5 mi NE 10.4 mph - N/A   Haze
11:00 PM 87.8 °F 86.5 °F 57.2 °F 35% 29.86 in 2.5 mi NE 10.4 mph - N/A   Haze
11:30 PM 88 °F - 54 °F 22% 29.75 in 2 mi ENE 6.9 mph - -   Partly Cloudy